sat.trackr.live / text

‹ back to catalog

STARLINK-3328

NORAD 50832 · 2022-001AF

PAYLOAD ACTIVE UNKNOWN

§ Identity

Operator
Country
US
Launch date
2022-01-06
Launch site
AFETR
Launch vehicle
Mass (kg)
RCS (m²)

Purposes: comms

External: N2YO · Heavens-Above · Gunter

§ Orbital elements

Epoch: 2026-05-24T13:29:48.771456Z

Period
95.44 min
Inclination
53.2150°
Eccentricity
0.0001151
Mean motion
15.08832645 rev/d
Perigee alt
539.0 km
Apogee alt
540.6 km
Semi-major
6,917.9 km
B*
-1.5779e-7
RAAN
198.5606°
Arg perigee
101.1960°
Mean anomaly
258.9162°
Rev number
24,172

§ Raw data

STARLINK-33281 50832U 22001AF  26144.56237004 -.00000290  00000+0 -15779-6 0  99942 50832  53.2150 198.5606 0001151 101.1960 258.9162 15.08832645241728

JSON: /api/v1/satellites/50832 · /tle

For live sub-satellite position, see the globe view (requires WebGL).

§ Visibility from observer

Set your observer location to see the next 7 days of passes ≥ 10°. The values pass through the URL so the page stays shareable.

No JS? Fill the form by hand. The geolocation button needs JavaScript.